This is the latest recevied weather packets stored in our database for station/object DO7ZT-13. If no packets are shown the sender has not sent any weather packets the latest 10 day(s).
| Time | Temp. | Humidity | Pressure | Rain* | Wind** | Luminosity | Snow |
|---|---|---|---|---|---|---|---|
| 1777342517 | 3.89° C | 68% | 1022.2 hPa | 0 mm | 0 m/s | - | - |
| 1777342205 | 3.89° C | 69% | 1022.2 hPa | 0 mm | 0 m/s | - | - |
| 1777341917 | 3.89° C | 68% | 1022.2 hPa | 0 mm | 0.45 m/s, 306° | - | - |
| 1777341605 | 3.89° C | 68% | 1022.1 hPa | 0 mm | 0.45 m/s, 330° | - | - |
| 1777341318 | 3.89° C | 67% | 1022.1 hPa | 0 mm | 0.45 m/s, 336° | - | - |
| 1777341005 | 3.89° C | 67% | 1022.1 hPa | 0 mm | 0.45 m/s, 324° | - | - |
| 1777340718 | 3.89° C | 67% | 1021.9 hPa | 0 mm | 0 m/s | - | - |
| 1777340408 | 3.89° C | 68% | 1021.9 hPa | 0 mm | 0 m/s | - | - |
| 1777340118 | 5° C | 66% | 1021.9 hPa | 0 mm | 0.45 m/s, 270° | - | - |
| 1777339805 | 5° C | 65% | 1021.9 hPa | 0 mm | 0 m/s | - | - |
| 1777339518 | 5° C | 64% | 1021.9 hPa | 0 mm | 0.45 m/s, 318° | - | - |
| 1777339205 | 5° C | 64% | 1021.9 hPa | 0 mm | 0.45 m/s, 318° | - | - |
| 1777338917 | 5° C | 63% | 1021.8 hPa | 0 mm | 0.45 m/s, 18° | - | - |
| 1777338605 | 5° C | 63% | 1021.8 hPa | 0 mm | 0.45 m/s, 342° | - | - |
| 1777338317 | 5° C | 62% | 1021.8 hPa | 0 mm | 0.45 m/s, 6° | - | - |
| 1777338005 | 6.11° C | 62% | 1021.7 hPa | 0 mm | 0.45 m/s, 348° | - | - |
| 1777337718 | 6.11° C | 62% | 1021.7 hPa | 0 mm | 0 m/s | - | - |
| 1777337405 | 6.11° C | 61% | 1021.7 hPa | 0 mm | 0 m/s | - | - |
| 1777337118 | 6.11° C | 61% | 1021.7 hPa | 0 mm | 0.45 m/s, 60° | - | - |
| 1777336805 | 6.11° C | 61% | 1021.7 hPa | 0 mm | 0.45 m/s, 12° | - | - |
| 1777336517 | 6.11° C | 61% | 1021.7 hPa | 0 mm | 0.89 m/s, 36° | - | - |
| 1777336205 | 6.11° C | 61% | 1021.8 hPa | 0 mm | 0 m/s | - | - |
| 1777335918 | 6.11° C | 60% | 1021.8 hPa | 0 mm | 0 m/s | - | - |
| 1777335605 | 6.11° C | 60% | 1021.8 hPa | 0 mm | 0.45 m/s, 18° | - | - |
| 1777335330 | 6.11° C | 58% | 1021.6 hPa | 0 mm | 0.89 m/s, 66° | - | - |
* Rain latest hour (hover to see other rain measurements)
** Current wind speed in m/s (hover to see current wind gust speed)